Regional Weather Roundup
Issued by NWS New Orleans/Baton Rouge, LA

Home | Current Version | Previous Version | Text Only | Print | Product List | Glossary On
Versions: 1 2 3 4 5 6 7 8 9 10 11 12 13 14 15 16 17 18 19 20 21 22 23 24 25 26 27
000
ASUS44 KLIX 041213
RWRLIX
NEW ORLEANS REGIONAL WEATHER ROUNDUP
NATIONAL WEATHER SERVICE NEW ORLEANS LA
600 AM CST SUN DEC 04 2016

NOTE: "FAIR" INDICATES FEW OR NO CLOUDS BELOW 12,000 FEET WITH NO
      SIGNIFICANT WEATHER AND/OR OBSTRUCTIONS TO VISIBILITY.
      SKY/WX - SKY CONDITION AND SIGNIFICANT WEATHER.
      TMP - AIR TEMPERATURE.     DP    - DEWPOINT TEMPERATURE.
      RH  - RELATIVE HUMIDITY.   PRES  - PRESSURE.
      HI  - HEAT INDEX.          WCI   - WIND CHILL INDEX.

*  THESE STATIONS ARE NOT NWS OR FAA STATIONS AND ARE NOT UNDER
   NWS QUALITY CONTROL.

LAZ038-040-048-061>063-065>067-069-041300-
SOUTHEAST LOUISIANA

CITY           SKY/WX    TMP DP  RH WIND       PRES   REMARKS
N.O. AUDUBON   NOT AVBL
N.O. INTL ARPT CLOUDY    61  61 100 CALM      29.90R
6HR MIN TEMP:  60; 6HR MAX TEMP:  63; 6HR PCP:  0.06;

N.O. LAKEFRONT CLOUDY    62  61  96 N8        29.90R FOG
6HR MIN TEMP:  61; 6HR MAX TEMP:  64; 6HR PCP:  0.06;

N.O. DOWNTOWN*   N/A     63  62  97 VRB7      29.91R FOG
6HR MIN TEMP:  60; 6HR MAX TEMP:  65;

RESERVE*       CLOUDY    61  59  94 CALM      29.91S
6HR MIN TEMP:  60; 6HR MAX TEMP:  63; 6HR PCP:  0.05;

SLIDELL        CLOUDY    60  59  96 CALM      29.90R
6HR MIN TEMP:  60; 6HR MAX TEMP:  62; 6HR PCP:  0.16;

BATON ROUGE    LGT RAIN  62  61  96 SE10      29.87R
6HR MIN TEMP:  60; 6HR MAX TEMP:  62; 6HR PCP:  2.09;

BOOTHVILLE     CLOUDY    67  67 100 VRB5      29.90R
                                      6HR PCP:  0.06;

BELLE CHASSE   CLOUDY    64  64 100 VRB5      29.89R
6HR MIN TEMP:  62; 6HR MAX TEMP:  65;

BOGALUSA*      PTSUNNY   56  51  85 CALM      29.92F
6HR MIN TEMP:  56; 6HR MAX TEMP:  61; 6HR PCP:  0.01;

GALLIANO*      CLOUDY    69  66  90 NW5       29.89R FOG
6HR MIN TEMP:  67; 6HR MAX TEMP:  71; 6HR PCP:  0.05;

NEW ROADS*     DRIZZLE   62  61  99 CALM      29.89R
6HR MIN TEMP:  55; 6HR MAX TEMP:  63; 6HR PCP:  0.54;

GONZALES*      LGT RAIN  60  60 100 CALM      29.89S
6HR MIN TEMP:  60; 6HR MAX TEMP:  65; 6HR PCP:  0.02;

HAMMOND*       CLOUDY    57  54  88 E5        29.89F
HOUMA*         CLOUDY    63  63 100 N5        29.89S FOG
PORT FOURCHON* PTSUNNY   75  72  88 S15G22    29.87S FOG

$$

MSZ070-080>082-041300-
SOUTHERN MISSISSIPPI

CITY           SKY/WX    TMP DP  RH WIND       PRES   REMARKS
MCCOMB         CLOUDY    55  52  89 NW8       29.87R
6HR MIN TEMP:  50; 6HR MAX TEMP:  55; 6HR PCP:  0.52;

GULFPORT       RAIN      63  63 100 CALM      29.91R FOG
6HR MIN TEMP:  59; 6HR MAX TEMP:  67; 6HR PCP:  1.01;

BILOXI         RAIN      63  63 100 NE6       29.91  FOG
6HR MIN TEMP:  59; 6HR MAX TEMP:  66; 6HR PCP:  0.74;

PASCAGOULA     LGT RAIN  63  60  90 VRB5      29.90F FOG
6HR MIN TEMP:  59; 6HR MAX TEMP:  63; 6HR PCP:  0.46;


$$

COASTAL OBSERVATIONS
LAKE AND NEARSHORE STATIONS

STATION/POSITION TIME  TEMP    WIND        PRES    WAVE
                       AIR SEA DIR/SP/G            HT/PER
                 (UTC) (F)     (DEG/KT/KT) (MB)    (FT/S)
PASCAGOULA       1148   68     110/ 18/ 24 1011.5
WAVELAND YACHT   1148   59 59   20/  5/  6 1012.8
GRAND ISLE       1148   73 67  210/ 10/ 17 1011.8
SOUTHWEST PASS   1148          180/ 19/ 23   N/A
NEW CANAL        1148   62 62   40/  8/  9 1011.5
SHELL BEACH      1148   67 63  310/  3/  6 1012.2

OFFSHORE STATIONS

STATION/POSITION TIME  TEMP    WIND        PRES    WAVE
                       AIR SEA DIR/SP/G            HT/PER
                 (UTC) (F)     (DEG/KT/KT) (MB)    (FT/S)
64 S DAUPHIN ISL 1150   76 76  150/ 19/ 27 1012.0    8/ 8

$$





USA.gov is the U.S. government's official web portal to all federal, state and local government web resources and services.